Regional Weather Roundup
Issued by NWS

Home | Current Version | Previous Version | Graphics & Text | Print | Product List | Glossary On
Versions: 1 2 3 4 5 6 7 8 9 10 11 12 13 14 15 16 17 18 19 20 21 22 23 24 25 26 27 28 29 30 31 32 33 34 35 36 37 38 39 40 41 42 43 44 45 46 47 48 49 50
000
ASUS45 KBOU 011807
RWRCO

WEATHER ROUNDUP FOR COLORADO
NATIONAL WEATHER SERVICE DENVER/BOULDER CO
1200 PM MDT WED APR 01 2015

NOTE: "FAIR" INDICATES FEW OR NO CLOUDS BELOW 12000 FEET WITH NO
SIGNIFICANT WEATHER AND/OR OBSTRUCTIONS TO VISIBILITY.

COZ001>005-013-030-031-011900-
...NORTHWEST COLORADO...

CITY           SKY/WX    TMP DP  RH WIND       PRES   REMARKS
CRAIG          PTSUNNY   53  26  35 W9        29.95F
HAYDEN         MOSUNNY   50  23  34 W20       29.93F
MEEKER         PTSUNNY   56  27  32 W13       29.94S
MOUNT WERNER   NOT AVBL
STEAMBOAT SPGS MOSUNNY   53  26  35 SW16G23   29.91S
WALDEN         CLOUDY    43  21  42 NW20G25   29.92R
$$

COZ006>008-011-011900-
...WEST CENTRAL VALLEYS...

CITY           SKY/WX    TMP DP  RH WIND       PRES   REMARKS
GRAND JUNCTION SUNNY     67  23  19 NW20G29   29.85F
MONTROSE       MOSUNNY   67  21  17 SW15G29   29.90F
EAGLE          MOSUNNY   63  19  19 SW24G33   29.87F
RIFLE          MOSUNNY   64  27  24 NW14G22   29.86F
DELTA          MOSUNNY   73  22  14 S14G24    29.85F
NUCLA          PTSUNNY   64  25  22 W9G16     29.95F
$$

COZ017>023-064>068-011900-
...SOUTHWEST COLORADO...

CITY           SKY/WX    TMP DP  RH WIND       PRES   REMARKS
DURANGO        MOSUNNY   62  26  25 SW17G28   29.97F
CORTEZ         MOSUNNY   66  22  18 W18G24    29.96F
PAGOSA SPRINGS MOSUNNY   59  20  22 W21G28    30.01F
TELLURIDE      PTSUNNY   48  17  29 SW13G20   30.06F
WOLF CREEK PAS PTSUNNY   34  21  60 SW26G39   30.16F WCI  21
$$

COZ009-010-012-014-032>034-037-058>063-011900-
...CENTRAL COLORADO...

CITY           SKY/WX    TMP DP  RH WIND       PRES   REMARKS
ASPEN          PTSUNNY   55  19  24 VRB6G23   29.92F
BUENA VISTA    PTSUNNY   58  14  17 SW14G25   29.92F
COPPER MTN     MIX PCPN  36  14  41 W22G33    30.06F
BERTHOUD PASS  LGT SNOW  28  21  74 W22G29    30.09S WCI  15
COTTONWOOD PAS PTSUNNY   50  12  22 SW25G39   29.99F
GUNNISON       PTSUNNY   57  21  24 SW22G31   29.97F
KREMMLING      CLOUDY    55  19  24 NW13      29.89S
LEADVILLE      NOT AVBL
SALIDA         MOSUNNY   62  17  17 W18G26    29.99F
SUNLIGHT       CLOUDY    45  21  39 SW3       30.06F
WILKERSON PASS MOSUNNY   46  12  25 SW7G23    30.07R
$$

COZ069>075-011900-
...SAN LUIS VALLEY/SANGRE DE CRISTO MOUNTAINS...

CITY           SKY/WX    TMP DP  RH WIND       PRES   REMARKS
ALAMOSA        MOSUNNY   64  16  15 W24G33    29.94F
LA VETA PASS   MOSUNNY   46  21  36 S13G31    30.04F
SAGUACHE       CLOUDY    57  21  24 S10       29.94F
$$

COZ035-036-038>040-011900-
...NORTHERN COLORADO FRONT RANGE...

CITY           SKY/WX    TMP DP  RH WIND       PRES   REMARKS
DENVER INTL AP PTSUNNY   69  20  15 CALM      29.77F
DMNS CITY PARK   N/A     72  21  14 N2        29.74F
AURORA         PTSUNNY   66  21  18 SE7       29.78F
FRONT RANGE AP PTSUNNY   72  23  16 NW8       29.78F
ERIE MUNI ARPT PTSUNNY   69  18  14 NW9       29.74F
BOULDER MUN AP PTSUNNY   70  21  16 W18G29    29.74F
CENTENNIAL     PTSUNNY   66  21  18 NW9       29.78F
BROOMFIELD     PTSUNNY   68  23  18 NE8       29.77F
FORT COLLINS   PTSUNNY   72  28  20 S13       29.74F
LONGMONT       CLOUDY    71  23  16 W9        29.76F
$$

COZ041-046-047-076>085-087-088-011900-
...PIKES PEAK/PALMER DIVIDE AND SOUTHERN FOOTHILLS...

CITY           SKY/WX    TMP DP  RH WIND       PRES   REMARKS
COLO. SPRINGS  PTSUNNY   68  18  14 VRB5      29.82F
A. F. ACADEMY  MOSUNNY   66  13  12 W10G23    29.82F
ELLICOTT       NOT AVBL
FALCON         MOSUNNY   65  16  15 S3G17     29.86F
FORT CARSON    MOSUNNY   71  22  15 W8        29.78F
LIMON          PTSUNNY   71  20  14 W10       29.77F
MONUMENT HILL  MOSUNNY   63  18  17 W5        29.84F
TRINIDAD       PTSUNNY   71  24  17 SW18      29.84F
$$

COZ042>045-048>051-090-091-011900-
...NORTHEAST COLORADO...

CITY           SKY/WX    TMP DP  RH WIND       PRES   REMARKS
GREELEY ARPT   MOSUNNY   73  25  16 W12G23    29.72F
AKRON          MOSUNNY   73  26  17 NW18      29.73F
BURLINGTON     CLOUDY    80  23  12 W16G24    29.71F
WRAY           MOSUNNY   81  22  11 NW16G26   29.69S
STERLING       MOSUNNY   75  30  19 N16G26    29.68F
HOLYOKE        MOSUNNY   73  28  19 N18G29    29.68F
FORT MORGAN    MOSUNNY   74  23  14 NW12G21   29.74F
$$

COZ086-089-092>099-011900-
...SOUTHEAST COLORADO...

CITY           SKY/WX    TMP DP  RH WIND       PRES   REMARKS
PUEBLO         SUNNY     71  22  15 SW3       29.76F
LA JUNTA       PTSUNNY   79  24  13 W18G28    29.74F
LAMAR          CLOUDY    78  27  15 W12       29.70F
SPRINGFIELD      N/A     78  24  13 W14G23    29.74F
$$


USA.gov is the U.S. government's official web portal to all federal, state and local government web resources and services.